timestamp,wind_dir_avg,wind_spd_avg,wind_spd_max_dir,wind_spd_gust,battery_voltage,lat,long
2022-04-14 00:04:01+00:00,0.0,9.4,2.0,10.66,12.33,47.59359,-54.27349
2022-04-14 00:14:01+00:00,359.0,10.69,0.0,12.23,12.25,47.59359,-54.27349
2022-04-14 00:24:01+00:00,0.0,10.19,4.0,11.43,12.25,47.59359,-54.27349
2022-04-14 00:34:01+00:00,356.0,7.92,358.0,9.68,12.25,47.59359,-54.27349
2022-04-14 00:44:01+00:00,354.0,8.92,8.0,10.52,12.25,47.59359,-54.27349
2022-04-14 00:54:01+00:00,352.0,8.46,356.0,9.64,12.25,47.59359,-54.27349
2022-04-14 01:04:01+00:00,356.0,8.32,18.0,9.92,12.25,47.59359,-54.27349
2022-04-14 01:14:00+00:00,359.0,8.62,345.0,9.68,12.25,47.59359,-54.27349
2022-04-14 01:24:00+00:00,351.0,8.41,14.0,9.54,12.25,47.59359,-54.27349
2022-04-14 01:34:00+00:00,351.0,8.8,16.0,9.73,12.25,47.59359,-54.27349
2022-04-14 01:44:00+00:00,354.0,8.63,354.0,10.07,12.25,47.59359,-54.27349
2022-04-14 01:54:00+00:00,0.0,9.97,5.0,11.72,12.25,47.59359,-54.27349
2022-04-14 02:04:00+00:00,352.0,8.13,347.0,9.26,12.25,47.59359,-54.27349
2022-04-14 02:14:00+00:00,356.0,8.88,350.0,11.3,12.25,47.59359,-54.27349
2022-04-14 02:24:00+00:00,7.0,10.73,31.0,12.96,12.25,47.59359,-54.27349
2022-04-14 02:34:00+00:00,23.0,13.5,31.0,16.66,12.25,47.59359,-54.27349
2022-04-14 02:44:00+00:00,15.0,13.13,28.0,16.22,12.25,47.59359,-54.27349
2022-04-14 02:54:00+00:00,18.0,12.49,29.0,15.33,12.25,47.59359,-54.27349
2022-04-14 03:04:00+00:00,15.0,11.96,32.0,16.77,12.25,47.59359,-54.27349
2022-04-14 03:14:00+00:00,12.0,11.14,32.0,13.81,12.33,47.59359,-54.27349
2022-04-14 03:24:00+00:00,4.0,10.83,24.0,14.18,12.33,47.59359,-54.27349
2022-04-14 03:34:00+00:00,0.0,11.12,18.0,13.12,12.33,47.59359,-54.27349
2022-04-14 03:44:00+00:00,355.0,10.2,353.0,12.07,12.33,47.59359,-54.27349
2022-04-14 03:54:00+00:00,12.0,12.57,15.0,14.95,12.33,47.59359,-54.27349
2022-04-14 04:04:00+00:00,2.0,12.99,356.0,14.88,12.33,47.59359,-54.27349
2022-04-14 04:14:00+00:00,354.0,11.09,353.0,12.58,12.09,47.59359,-54.27349
2022-04-14 04:24:00+00:00,358.0,10.75,351.0,13.15,12.09,47.59359,-54.27349
2022-04-14 04:34:00+00:00,355.0,9.17,354.0,10.53,12.09,47.59359,-54.27349
2022-04-14 04:44:00+00:00,0.0,12.21,353.0,14.8,12.09,47.59359,-54.27349
2022-04-14 04:54:00+00:00,350.0,12.38,356.0,14.6,12.09,47.59359,-54.27349
2022-04-14 05:04:00+00:00,353.0,11.94,353.0,14.76,12.09,47.59359,-54.27349
2022-04-14 05:14:01+00:00,354.0,12.01,350.0,14.68,12.17,47.59359,-54.27349
2022-04-14 05:24:01+00:00,16.0,12.78,34.0,15.52,12.17,47.59359,-54.27349
2022-04-14 05:34:01+00:00,7.0,11.83,15.0,14.0,12.17,47.59359,-54.27349
2022-04-14 05:44:01+00:00,357.0,12.49,14.0,15.32,12.17,47.59359,-54.27349
2022-04-14 05:54:01+00:00,2.0,10.38,18.0,12.56,12.17,47.59359,-54.27349
2022-04-14 06:04:01+00:00,355.0,10.01,357.0,11.9,12.17,47.59359,-54.27349
2022-04-14 06:14:01+00:00,356.0,9.2,353.0,12.18,12.17,47.59359,-54.27349
2022-04-14 06:24:01+00:00,358.0,9.61,9.0,11.61,12.17,47.59359,-54.27349
2022-04-14 06:34:01+00:00,359.0,9.6,358.0,10.65,12.17,47.59359,-54.27349
2022-04-14 06:44:01+00:00,359.0,11.4,358.0,14.05,12.17,47.59359,-54.27349
2022-04-14 06:54:01+00:00,355.0,10.41,350.0,12.55,12.17,47.59359,-54.27349
2022-04-14 07:04:01+00:00,358.0,10.23,9.0,11.43,12.17,47.59359,-54.27349
2022-04-14 07:14:00+00:00,359.0,9.94,8.0,12.06,12.17,47.59359,-54.27349
2022-04-14 07:24:00+00:00,3.0,11.54,5.0,13.62,12.17,47.59359,-54.27349
2022-04-14 07:34:00+00:00,5.0,10.48,2.0,12.2,12.17,47.59359,-54.27349
2022-04-14 07:44:00+00:00,2.0,10.91,345.0,12.79,12.17,47.59359,-54.27349
2022-04-14 07:54:00+00:00,4.0,8.12,356.0,9.93,12.17,47.59359,-54.27349
2022-04-14 08:04:00+00:00,358.0,10.88,359.0,12.66,12.17,47.59359,-54.27349
2022-04-14 08:14:01+00:00,2.0,8.24,2.0,9.95,12.09,47.59359,-54.27349
2022-04-14 08:24:01+00:00,5.0,9.97,10.0,11.33,12.09,47.59359,-54.27349
2022-04-14 08:34:01+00:00,359.0,9.62,359.0,10.89,12.09,47.59359,-54.27349
2022-04-14 08:44:01+00:00,356.0,10.35,359.0,12.19,12.09,47.59359,-54.27349
2022-04-14 08:54:01+00:00,3.0,10.3,10.0,11.66,12.09,47.59359,-54.27349
2022-04-14 09:04:01+00:00,2.0,10.19,357.0,11.57,12.09,47.59359,-54.27349
2022-04-14 09:14:01+00:00,354.0,10.32,350.0,13.55,12.09,47.59359,-54.27349
2022-04-14 09:24:01+00:00,357.0,10.08,359.0,11.4,12.09,47.59359,-54.27349
2022-04-14 09:34:01+00:00,349.0,8.72,345.0,10.09,12.09,47.59359,-54.27349
2022-04-14 09:44:01+00:00,357.0,8.69,358.0,10.48,12.09,47.59359,-54.27349
2022-04-14 09:54:01+00:00,354.0,9.97,349.0,11.77,12.09,47.59359,-54.27349
2022-04-14 10:04:01+00:00,356.0,7.52,347.0,8.76,12.09,47.59359,-54.27349
2022-04-14 10:14:01+00:00,351.0,8.07,347.0,9.42,12.17,47.59359,-54.27349
2022-04-14 10:24:01+00:00,356.0,7.82,2.0,9.89,12.17,47.59359,-54.27349
2022-04-14 10:34:01+00:00,357.0,6.5,359.0,8.07,12.17,47.59359,-54.27349
2022-04-14 10:44:01+00:00,358.0,7.81,0.0,9.56,12.17,47.59359,-54.27349
2022-04-14 10:54:01+00:00,352.0,7.7,346.0,8.87,12.17,47.59359,-54.27349
2022-04-14 11:04:01+00:00,356.0,8.05,2.0,10.01,12.17,47.59359,-54.27349
2022-04-14 11:14:01+00:00,354.0,7.63,347.0,9.0,13.44,47.59359,-54.27349
2022-04-14 11:24:01+00:00,356.0,6.46,343.0,7.88,13.44,47.59359,-54.27349
2022-04-14 11:34:01+00:00,1.0,7.14,5.0,8.19,13.44,47.59359,-54.27349
2022-04-14 11:44:01+00:00,1.0,8.2,1.0,9.2,13.44,47.59359,-54.27349
2022-04-14 11:54:01+00:00,1.0,7.96,353.0,9.38,13.44,47.59359,-54.27349
2022-04-14 12:04:01+00:00,1.0,8.38,0.0,9.55,13.44,47.59359,-54.27349
2022-04-14 13:14:00+00:00,7.0,7.6,3.0,8.86,14.24,47.59359,-54.27349
2022-04-14 13:24:00+00:00,2.0,7.16,6.0,8.02,14.24,47.59359,-54.27349
2022-04-14 13:34:00+00:00,1.0,8.8,357.0,10.05,14.24,47.59359,-54.27349
2022-04-14 13:44:00+00:00,0.0,8.67,358.0,10.08,14.24,47.59359,-54.27349
2022-04-14 13:54:00+00:00,359.0,7.75,356.0,8.45,14.24,47.59359,-54.27349
2022-04-14 14:04:00+00:00,349.0,8.79,350.0,10.14,14.24,47.59359,-54.27349
2022-04-14 14:14:00+00:00,358.0,9.03,351.0,10.11,14.24,47.59359,-54.27349
2022-04-14 14:24:00+00:00,351.0,10.24,349.0,11.69,14.24,47.59359,-54.27349
2022-04-14 14:34:00+00:00,354.0,8.09,353.0,8.83,14.24,47.59359,-54.27349
2022-04-14 14:44:00+00:00,359.0,7.57,3.0,9.67,14.24,47.59359,-54.27349
2022-04-14 14:54:00+00:00,355.0,7.51,354.0,8.55,14.24,47.59359,-54.27349
2022-04-14 15:04:00+00:00,352.0,9.84,353.0,10.68,14.24,47.59359,-54.27349
2022-04-14 15:14:01+00:00,356.0,8.46,348.0,9.73,14.32,47.59359,-54.27349
2022-04-14 15:24:01+00:00,9.0,5.81,6.0,7.53,14.32,47.59359,-54.27349
2022-04-14 15:34:01+00:00,2.0,8.23,1.0,9.74,14.32,47.59359,-54.27349
2022-04-14 15:44:01+00:00,357.0,7.83,354.0,8.54,14.32,47.59359,-54.27349
2022-04-14 15:54:01+00:00,354.0,8.47,348.0,9.84,14.32,47.59359,-54.27349
2022-04-14 16:04:01+00:00,356.0,9.3,357.0,10.89,14.32,47.59359,-54.27349
2022-04-14 16:14:00+00:00,0.0,8.11,1.0,8.84,14.24,47.59359,-54.27349
2022-04-14 16:24:00+00:00,351.0,6.14,353.0,6.85,14.24,47.59359,-54.27349
2022-04-14 16:34:00+00:00,358.0,9.49,358.0,11.54,14.24,47.59359,-54.27349
2022-04-14 16:44:00+00:00,343.0,8.19,344.0,8.98,14.24,47.59359,-54.27349
2022-04-14 16:54:00+00:00,1.0,8.31,1.0,9.16,14.24,47.59359,-54.27349
2022-04-14 17:04:00+00:00,357.0,7.64,359.0,10.34,14.24,47.59359,-54.27349
2022-04-14 17:14:00+00:00,354.0,8.5,345.0,10.62,14.24,47.59359,-54.27349
2022-04-14 17:24:00+00:00,4.0,8.01,25.0,9.68,14.24,47.59359,-54.27349
2022-04-14 17:34:00+00:00,341.0,8.99,327.0,10.8,14.24,47.59359,-54.27349
2022-04-14 17:44:00+00:00,340.0,9.7,331.0,11.17,14.24,47.59359,-54.27349
2022-04-14 17:54:00+00:00,340.0,10.96,334.0,12.78,14.24,47.59359,-54.27349
2022-04-14 18:04:00+00:00,335.0,12.24,332.0,13.53,14.24,47.59359,-54.27349
2022-04-14 18:14:01+00:00,0.0,11.11,358.0,13.21,14.32,47.59359,-54.27349
2022-04-14 18:24:01+00:00,342.0,9.1,330.0,10.69,14.32,47.59359,-54.27349
2022-04-14 18:34:01+00:00,350.0,7.49,331.0,9.38,14.32,47.59359,-54.27349
2022-04-14 18:44:01+00:00,355.0,6.53,333.0,8.38,14.32,47.59359,-54.27349
2022-04-14 18:54:01+00:00,7.0,7.01,32.0,8.58,14.32,47.59359,-54.27349
2022-04-14 19:04:01+00:00,0.0,5.63,358.0,6.14,14.32,47.59359,-54.27349
2022-04-14 19:14:00+00:00,33.0,7.36,41.0,8.7,13.68,47.59359,-54.27349
2022-04-14 19:24:00+00:00,32.0,7.91,33.0,8.89,13.68,47.59359,-54.27349
2022-04-14 19:34:00+00:00,11.0,6.24,23.0,7.5,13.68,47.59359,-54.27349
2022-04-14 19:44:00+00:00,34.0,7.65,32.0,8.85,13.68,47.59359,-54.27349
2022-04-14 19:54:00+00:00,33.0,8.02,36.0,9.44,13.68,47.59359,-54.27349
2022-04-14 20:04:00+00:00,34.0,8.41,31.0,9.82,13.68,47.59359,-54.27349
2022-04-14 20:14:00+00:00,29.0,6.02,45.0,7.14,13.76,47.59359,-54.27349
2022-04-14 20:24:00+00:00,27.0,7.15,36.0,8.47,13.76,47.59359,-54.27349
2022-04-14 20:34:00+00:00,28.0,7.46,30.0,8.51,13.76,47.59359,-54.27349
2022-04-14 20:44:00+00:00,29.0,7.0,42.0,8.38,13.76,47.59359,-54.27349
2022-04-14 20:54:00+00:00,32.0,6.61,33.0,7.05,13.76,47.59359,-54.27349
2022-04-14 21:04:00+00:00,42.0,6.66,43.0,7.21,13.76,47.59359,-54.27349
2022-04-14 21:14:01+00:00,47.0,6.26,47.0,6.7,13.53,47.59359,-54.27349
2022-04-14 21:24:01+00:00,40.0,5.92,38.0,6.58,13.53,47.59359,-54.27349
2022-04-14 21:34:01+00:00,42.0,6.37,42.0,6.91,13.53,47.59359,-54.27349
2022-04-14 21:44:01+00:00,51.0,5.74,54.0,6.24,13.53,47.59359,-54.27349
2022-04-14 21:54:01+00:00,54.0,5.43,56.0,6.02,13.53,47.59359,-54.27349
2022-04-14 22:04:01+00:00,67.0,4.68,60.0,5.58,13.53,47.59359,-54.27349
2022-04-14 22:14:01+00:00,67.0,4.98,69.0,5.63,13.05,47.59359,-54.27349
2022-04-14 22:24:01+00:00,74.0,5.94,74.0,6.76,13.05,47.59359,-54.27349
2022-04-14 22:34:01+00:00,126.0,2.66,123.0,4.25,13.05,47.59359,-54.27349
2022-04-14 22:44:01+00:00,120.0,3.99,120.0,5.24,13.05,47.59359,-54.27349
2022-04-14 22:54:01+00:00,83.0,4.48,87.0,6.6,13.05,47.59359,-54.27349
2022-04-14 23:04:01+00:00,115.0,2.35,130.0,3.93,13.05,47.59359,-54.27349
2022-04-14 23:14:01+00:00,125.0,2.87,125.0,3.13,12.49,47.59359,-54.27349
2022-04-14 23:24:01+00:00,126.0,2.82,124.0,3.16,12.49,47.59359,-54.27349
2022-04-14 23:34:01+00:00,108.0,1.61,135.0,2.9,12.49,47.59359,-54.27349
2022-04-14 23:44:01+00:00,98.0,1.76,113.0,2.68,12.49,47.59359,-54.27349
2022-04-14 23:54:01+00:00,138.0,1.14,120.0,3.21,12.49,47.59359,-54.27349
